Stations météo

réclame
Mon MeteoGroup
Catania/Sigonella, Italie (16459): Température de l'air & dewpoint: 12.02.2018 21:00:00 - 18.02.2018 21:00:00 (CET)Catania/Sigonella, Italie (16459): Vitesse du vent: 12.02.2018 21:00:00 - 18.02.2018 21:00:00 (CET)Catania/Sigonella, Italie (16459): Direction du vent: 12.02.2018 21:00:00 - 18.02.2018 21:00:00 (CET)Catania/Sigonella, Italie (16459): reduced air pressure: 12.02.2018 21:00:00 - 18.02.2018 21:00:00 (CET)Catania/Sigonella, Italie (16459): visibility: 12.02.2018 21:00:00 - 18.02.2018 21:00:00 (CET)
Date & Time tt [°C] td [°C] ff [km/h] ff [knt] dd ppp [hPa] vv [km]
18.02.2018 21:00:00 - - - - - - -
18.02.2018 20:00:00 11,0 11,0 - - - - 10
18.02.2018 19:00:00 12,2 12,2 9 5 E 1015,4 10
18.02.2018 18:00:00 12,0 12,0 - - - - 10
18.02.2018 17:00:00 13,0 6,0 - - - - 10
18.02.2018 16:00:00 14,2 7,7 8 4 S 1015,8 10
18.02.2018 15:00:00 15,0 6,0 - - - - 10
18.02.2018 14:00:00 15,0 7,0 - - - - 10
18.02.2018 13:00:00 14,8 6,1 5 3 W 1017,4 10
18.02.2018 12:00:00 14,0 7,0 - - - - 10
18.02.2018 11:00:00 14,0 11,0 - - - - 10
18.02.2018 10:00:00 10,8 8,4 15 8 W 1019,3 10
18.02.2018 09:00:00 8,0 8,0 - - - - 10
18.02.2018 08:00:00 8,0 8,0 - - - - 10
18.02.2018 07:00:00 8,6 8,6 5 3 W 1019,9 10
18.02.2018 06:00:00 8,0 8,0 - - - - 10
18.02.2018 05:00:00 7,0 7,0 - - - - 10
18.02.2018 04:00:00 7,2 7,2 9 5 W 1020,7 12
18.02.2018 03:00:00 7,0 7,0 - - - - 10
18.02.2018 02:00:00 7,0 7,0 - - - - 10
18.02.2018 01:00:00 6,4 6,4 8 4 W 1021,8 15
18.02.2018 00:00:00 7,0 7,0 - - - - 10
17.02.2018 23:00:00 7,0 7,0 - - - - 10
17.02.2018 22:00:00 9,2 9,2 8 4 WSW 1022,6 15
17.02.2018 21:00:00 10,0 9,0 - - - - 10
17.02.2018 20:00:00 8,0 8,0 - - - - 10
17.02.2018 19:00:00 9,0 7,4 9 5 SW 1022,6 10
17.02.2018 18:00:00 10,0 5,0 9 5 WSW - 10
17.02.2018 17:00:00 14,0 4,0 18 10 W - 10
17.02.2018 16:00:00 14,8 3,9 22 12 W 1022,1 10
17.02.2018 15:00:00 16,0 2,0 15 8 W - 10
17.02.2018 14:00:00 16,0 2,0 13 7 W - 10
17.02.2018 13:00:00 16,2 2,6 4 2 NW 1023,6 10
17.02.2018 12:00:00 16,0 3,0 8 4 WSW - 10
17.02.2018 11:00:00 13,0 4,0 9 5 W - 10
17.02.2018 10:00:00 10,0 3,7 8 4 W 1025,8 10
17.02.2018 09:00:00 6,0 5,0 9 5 W - 10
17.02.2018 08:00:00 1,0 1,0 9 5 W - 10
17.02.2018 07:00:00 0,4 0,4 9 5 WSW 1026,0 10
17.02.2018 06:00:00 1,0 1,0 9 5 W - 10
17.02.2018 05:00:00 1,0 1,0 11 6 WSW - 10
17.02.2018 04:00:00 2,2 2,2 9 5 W 1026,0 10
17.02.2018 03:00:00 3,0 3,0 9 5 SW - 10
17.02.2018 02:00:00 4,0 4,0 11 6 W - 10
17.02.2018 01:00:00 5,4 5,4 15 8 W 1026,6 10
17.02.2018 00:00:00 3,0 3,0 11 6 WSW - 10
16.02.2018 23:00:00 4,0 4,0 9 5 W - 10
16.02.2018 22:00:00 6,4 4,9 9 5 WNW 1026,6 10
16.02.2018 21:00:00 8,0 5,0 5 3 WNW - 10
16.02.2018 20:00:00 8,0 5,0 9 5 NNW - 10
16.02.2018 19:00:00 8,0 4,9 5 3 N 1025,7 15
16.02.2018 18:00:00 10,0 3,0 13 7 ENE - 10
16.02.2018 17:00:00 12,0 1,0 15 8 ENE - 10
16.02.2018 16:00:00 14,2 -1,8 13 7 E 1024,6 15
16.02.2018 15:00:00 15,0 -3,0 4 2 WNW - 10
16.02.2018 14:00:00 16,0 -3,0 4 2 SE - 10
16.02.2018 13:00:00 15,0 -2,9 8 4 WSW 1025,5 15
16.02.2018 12:00:00 14,0 -2,0 5 3 NE - 10
16.02.2018 11:00:00 12,0 -2,0 9 5 E - 10
16.02.2018 10:00:00 11,0 1,5 5 3 W 1025,6 15
16.02.2018 09:00:00 6,0 2,0 4 2 N - 10
16.02.2018 08:00:00 3,0 3,0 2 1 SW - 10
16.02.2018 07:00:00 1,0 1,0 9 5 W 1023,7 16
16.02.2018 06:00:00 1,0 1,0 11 6 SW - 10
16.02.2018 05:00:00 2,0 2,0 8 4 WSW - 10
16.02.2018 04:00:00 2,6 1,1 15 8 WSW 1022,9 10
16.02.2018 03:00:00 2,0 1,0 13 7 W - 10
16.02.2018 02:00:00 4,0 0,0 15 8 W - 10
16.02.2018 01:00:00 5,0 -0,8 16 9 W 1022,7 10
16.02.2018 00:00:00 5,0 -4,0 16 9 SW - 10
15.02.2018 23:00:00 7,0 -4,0 8 4 WNW - 10
15.02.2018 22:00:00 7,2 -3,9 24 13 WNW 1020,9 10
15.02.2018 21:00:00 8,0 -5,0 26 14 WNW - 10
15.02.2018 20:00:00 8,0 -5,0 29 16 NW - 10
15.02.2018 19:00:00 7,6 -5,5 31 17 W 1018,9 10
15.02.2018 18:00:00 8,0 -5,0 22 12 WNW - 10
15.02.2018 17:00:00 10,0 -3,0 29 16 NW - 10
15.02.2018 16:00:00 11,0 -4,3 48 26 NW 1016,4 10
15.02.2018 15:00:00 12,0 -4,0 37 20 NW - 10
15.02.2018 14:00:00 12,0 -3,0 52 28 WNW - 10
15.02.2018 13:00:00 11,4 -1,1 44 24 NW 1015,9 15
15.02.2018 12:00:00 10,0 3,0 50 27 NW - 10
15.02.2018 11:00:00 10,0 3,0 42 23 NNW - 10
15.02.2018 10:00:00 9,8 3,8 15 8 NNW 1017,6 10
15.02.2018 09:00:00 9,0 4,0 8 4 NNE - 10
15.02.2018 08:00:00 7,0 4,0 13 7 NNW - 10
15.02.2018 07:00:00 6,2 4,0 16 9 NW 1015,0 10
15.02.2018 06:00:00 6,0 6,0 11 6 W - 10
15.02.2018 05:00:00 6,0 6,0 26 14 NNW - 8
15.02.2018 04:00:00 6,2 4,7 29 16 WNW 1012,4 10
15.02.2018 03:00:00 6,0 5,0 34 18 WNW - 10
15.02.2018 02:00:00 5,0 5,0 11 6 WSW - 10
15.02.2018 01:00:00 4,8 4,8 16 9 W 1011,9 10
15.02.2018 00:00:00 5,0 5,0 18 10 WSW - 10
14.02.2018 23:00:00 5,0 5,0 16 9 W - 10
14.02.2018 22:00:00 5,2 5,2 22 12 W 1012,2 10
14.02.2018 21:00:00 5,0 4,0 18 10 WNW - 10
14.02.2018 20:00:00 7,0 4,0 16 9 W - 10
14.02.2018 19:00:00 8,0 3,1 4 2 WNW 1012,0 10
14.02.2018 18:00:00 8,0 8,0 18 10 W - 8
14.02.2018 17:00:00 8,0 8,0 13 7 W - 10
14.02.2018 16:00:00 8,6 8,6 18 10 W 1012,6 6
14.02.2018 15:00:00 9,0 9,0 21 11 W - 6
14.02.2018 14:00:00 10,0 9,0 28 15 WSW - 7
14.02.2018 13:00:00 9,6 9,6 26 14 WSW 1014,6 7
14.02.2018 12:00:00 10,0 9,0 21 11 WSW - 8
14.02.2018 11:00:00 12,0 5,0 13 7 W - 10
14.02.2018 10:00:00 10,4 4,3 13 7 WSW 1016,7 14
14.02.2018 09:00:00 7,0 4,0 13 7 WSW - 10
14.02.2018 08:00:00 5,0 5,0 4 2 S - 10
14.02.2018 07:00:00 4,8 3,3 11 6 W 1016,6 10
14.02.2018 06:00:00 5,0 3,0 16 9 WSW - 10
14.02.2018 05:00:00 5,0 4,0 4 2 NNE - 10
14.02.2018 04:00:00 4,8 4,1 8 4 WNW 1016,7 10
14.02.2018 03:00:00 5,0 4,0 8 4 W - 10
14.02.2018 02:00:00 5,0 4,0 16 9 W - 10
14.02.2018 01:00:00 5,0 3,2 22 12 W 1016,5 10
14.02.2018 00:00:00 5,0 4,0 21 11 W - 10
13.02.2018 23:00:00 5,0 5,0 22 12 W - 10
13.02.2018 22:00:00 5,8 5,8 28 15 W 1015,6 10
13.02.2018 21:00:00 7,0 5,0 35 19 WNW - 10
13.02.2018 20:00:00 8,0 5,0 31 17 WNW - 10
13.02.2018 19:00:00 8,6 3,8 28 15 WNW 1013,5 10
13.02.2018 18:00:00 9,0 4,0 24 13 WNW - 10
13.02.2018 17:00:00 11,0 3,0 28 15 WNW - 10
13.02.2018 16:00:00 12,2 4,2 37 20 W 1010,7 10
13.02.2018 15:00:00 12,0 5,0 48 26 W - 10
13.02.2018 14:00:00 12,0 6,0 44 24 W - 10
13.02.2018 13:00:00 11,8 10,2 22 12 WNW 1009,7 10
13.02.2018 12:00:00 12,0 12,0 22 12 W - 10
13.02.2018 11:00:00 11,0 8,0 5 3 NW - 10
13.02.2018 10:00:00 10,4 8,3 16 9 W 1011,6 10
13.02.2018 09:00:00 12,0 12,0 15 8 WSW - 8
13.02.2018 08:00:00 10,0 10,0 8 4 WSW - 9
13.02.2018 07:00:00 9,6 9,6 9 5 W 1011,7 10
13.02.2018 06:00:00 10,0 10,0 9 5 W - 10
13.02.2018 05:00:00 11,0 11,0 9 5 W - 10
13.02.2018 04:00:00 10,6 10,6 11 6 W 1013,6 10
13.02.2018 03:00:00 10,0 10,0 13 7 WSW - 10
13.02.2018 02:00:00 11,0 11,0 21 11 W - 10
13.02.2018 01:00:00 10,6 10,6 8 4 W 1015,1 10
13.02.2018 00:00:00 10,0 10,0 13 7 W - 10
12.02.2018 23:00:00 10,0 10,0 21 11 WSW - 10
12.02.2018 22:00:00 10,0 10,0 18 10 WSW 1015,4 10
12.02.2018 21:00:00 11,0 11,0 8 4 WNW - 10

tt = Température de l'air
td = dewpoint
ff = Vitesse du vent
dd = Direction du vent
ppp = reduced air pressure
vv = visibility

stations d'obs. à proximité